RH
9 9 20 25 22 32 30 24 19 19 27 50 37 45 39 59 45 44 71 50 28 29 32 41 51 49 46 45 45 48 48 44 44 48 50 51 51 52 55 51 53 56 56 54 55 55 52 55 62
11 12 21 29 30 25 19 22 24 26 46 59 58 60 60 64 74 81 64 58 32 30 32 36 37 44 50 53 50 55 52 48 46 48 49 51 53 54 59 57 58 59 60 59 56 56 56 54 55
14 16 24 32 40 24 20 14 12 14 47 50 69 66 66 74 75 70 63 54 39 37 35 35 34 32 34 46 57 60 59 54 52 50 51 54 57 57 62 61 61 62 63 65 62 58 56 57 55
15 20 25 27 26 22 17 14 13 13 24 49 68 82 69 68 70 66 60 43 38 38 39 38 35 34 36 41 52 59 61 60 58 55 55 57 60 59 65 66 66 68 66 69 73 69 62 60 59
13 24 27 29 22 18 15 13 13 20 23 44 55 87 82 68 65 65 56 40 36 41 43 40 39 39 40 44 51 59 62 64 63 61 60 61 62 64 67 69 69 71 69 72 78 80 69 63 64
13 22 27 26 21 16 13 12 12 14 14 51 72 85 80 72 75 66 52 42 37 39 42 42 43 43 43 45 50 55 57 59 63 66 66 67 68 67 70 73 72 70 70 71 74 76 74 68 64
14 16 18 20 18 14 13 13 14 14 15 46 63 84 82 76 84 71 58 48 45 44 43 44 46 47 46 48 49 52 52 57 63 68 67 70 72 72 73 76 75 76 76 75 76 75 75 77 73
17 16 16 17 17 12 12 11 10 11 15 38 58 74 85 78 87 77 65 56 54 50 47 46 48 48 48 50 52 54 56 59 63 66 69 69 69 72 75 78 80 83 82 79 78 78 79 82 83
13 18 20 15 13 12 12 13 10 10 20 56 65 69 64 76 91 93 94 93 86 72 59 54 52 52 53 54 56 57 58 60 60 62 65 66 69 76 78 80 80 81 81 82 82 83 84 82 78
18 20 16 13 13 14 13 12 12 11 13 41 58 68 81 91 97 98 99 98 100 99 85 73 66 62 63 63 61 63 65 65 64 67 70 69 72 76 80 82 86 87 84 83 82 86 91 92 88
20 20 14 15 16 20 16 16 11 11 12 21 32 75 84 89 91 92 95 97 99 100 92 89 77 71 70 68 69 73 72 73 76 79 79 81 84 87 90 89 91 86 80 77 83 81 82 90 90
34 24 24 24 24 23 23 16 16 13 14 12 31 74 80 84 86 88 90 95 100 100 99 92 83 81 80 78 81 80 80 79 79 80 81 86 88 91 92 87 92 89 71 82 84 83 86 89 88
30 31 33 30 29 26 23 22 19 17 14 14 24 76 80 78 78 78 84 92 90 90 90 85 85 83 82 83 86 83 82 83 88 92 92 93 91 87 84 84 85 86 82 86 89 89 92 91 87
35 36 36 30 29 25 25 22 16 17 16 15 23 82 81 77 76 79 81 89 87 87 86 85 85 83 84 88 83 85 93 95 95 94 90 88 86 82 77 82 85 85 88 88 92 90 88 87 84
37 40 37 30 24 24 21 24 20 17 17 18 16 58 79 76 72 77 76 84 86 87 90 92 87 86 89 88 89 92 98 94 90 87 82 77 82 77 70 76 84 84 87 84 83 82 80 81 78
41 40 40 22 25 23 21 34 22 20 20 19 17 15 64 74 71 72 74 78 84 88 89 89 87 88 84 86 86 94 99 97 89 84 76 78 83 84 77 78 80 78 76 75 75 71 66 65 61
53 46 44 38 28 26 24 32 23 23 24 23 21 20 22 66 72 69 70 74 78 79 83 86 88 87 85 84 85 86 96 93 82 74 69 68 81 83 79 78 80 74 69 68 66 63 60 57 53
56 57 50 44 36 33 39 37 30 28 26 30 36 36 31 23 63 64 66 70 76 82 81 87 92 86 73 70 72 74 75 73 68 62 55 60 71 78 76 74 72 70 69 68 66 62 60 58 55
49 51 57 49 38 40 41 41 34 28 32 43 44 47 47 43 28 46 61 66 75 79 86 92 91 77 68 70 71 72 72 68 65 61 54 52 62 70 70 70 70 69 68 66 62 62 59 56 52
58 62 61 49 40 42 44 42 37 27 39 41 43 46 49 50 49 44 67 69 74 82 91 94 88 79 74 70 70 66 64 65 63 63 60 55 58 67 67 66 65 63 61 59 56 59 58 52 51
55 59 56 53 39 39 42 49 37 37 41 42 44 47 50 55 60 57 72 73 78 83 88 89 84 82 77 72 68 61 62 65 71 69 63 60 60 62 61 60 60 60 58 57 52 56 57 50 58
60 45 44 47 44 57 39 69 40 38 51 46 47 50 56 75 78 80 87 92 90 94 89 89 84 80 79 79 76 65 60 63 66 64 63 62 58 57 60 58 59 60 60 57 54 56 60 52 54
52 42 44 38 44 50 46 58 49 48 53 46 49 49 62 75 80 90 95 98 98 96 96 87 80 76 75 80 69 64 61 57 56 60 62 61 58 57 61 62 64 64 66 65 61 62 64 61 50
34 32 42 48 51 69 53 56 58 53 53 48 46 50 57 71 77 83 88 88 87 82 79 77 75 72 78 70 64 61 58 58 58 59 61 60 60 59 61 67 68 69 68 66 63 62 63 65 56
32 46 70 66 69 73 49 58 54 49 44 47 48 48 53 66 74 79 84 90 88 79 75 74 72 74 71 67 65 61 59 57 57 56 57 59 60 60 61 68 72 74 72 68 66 65 64 63 63
44 48 70 74 79 69 59 64 61 45 39 38 42 43 50 58 68 74 74 75 78 77 72 70 71 68 68 67 64 62 60 60 60 58 57 58 58 57 57 66 75 76 76 75 72 68 66 64 63
51 54 44 70 80 89 70 60 50 53 47 38 34 39 45 49 54 56 64 61 64 66 65 61 56 55 48 57 61 63 62 62 60 58 57 57 58 59 60 62 71 76 76 74 72 71 68 66 61
44 43 61 82 81 87 75 70 76 67 54 42 38 42 45 43 49 57 56 53 51 52 53 53 54 53 53 55 61 64 63 61 60 60 59 59 59 62 64 70 76 77 77 75 72 69 66 64 60
55 57 66 70 81 84 83 79 58 59 48 38 30 33 47 49 50 48 51 49 46 43 45 49 54 51 51 55 58 63 63 63 65 66 65 64 64 66 68 73 77 79 76 74 72 68 62 61 59
40 58 66 83 84 91 86 74 47 43 37 48 54 43 20 41 46 49 53 56 57 56 56 54 56 55 52 56 59 59 61 65 68 69 68 66 64 65 63 71 78 77 74 69 68 67 64 60 62
Wind_Speed
13 11 3 4 4 5 4 6 3 9 1 4 6 4 8 1 4 4 3 14 27 31 26 24 25 25 25 24 22 21 20 20 19 19 19 18 17 16 14 13 12 11 11 11 12 12 12 13 13
12 5 3 2 5 3 5 5 5 2 2 8 8 5 3 3 2 3 13 13 32 31 27 24 23 23 23 23 22 21 20 20 19 18 18 16 15 14 12 12 11 9 9 9 10 11 10 11 11
6 4 4 4 3 3 3 4 7 4 6 1 5 3 3 4 3 11 8 24 34 30 27 25 22 20 21 22 21 21 20 20 19 18 17 16 14 13 11 11 10 9 7 7 7 8 8 8 8
2 5 4 4 2 5 4 8 9 5 5 6 5 6 1 4 6 10 24 34 35 31 27 24 22 20 20 21 21 20 20 19 18 17 17 15 13 12 11 11 10 8 7 6 5 4 5 5 6
4 3 4 4 3 5 4 7 7 2 2 2 2 4 0 7 5 19 31 38 36 31 28 25 22 21 20 20 21 20 19 18 17 17 16 14 13 11 10 10 10 8 7 6 5 4 2 3 3
4 3 4 1 4 5 5 5 5 7 6 3 5 3 2 4 18 23 33 35 33 33 29 26 23 21 20 20 19 20 19 18 17 16 15 13 12 10 10 10 9 9 8 7 5 4 3 2 2
5 4 4 3 4 4 5 10 4 6 7 4 5 4 3 4 15 24 27 28 29 29 30 28 25 23 21 20 19 19 18 17 16 15 14 13 11 10 10 10 9 8 8 7 7 6 5 4 4
4 4 2 3 2 3 5 8 3 4 2 1 3 4 4 6 23 26 26 27 27 28 27 27 26 24 23 21 19 18 17 17 16 15 14 13 11 10 10 9 9 8 8 7 7 7 7 6 6
3 3 1 3 2 3 5 8 6 4 2 4 4 2 4 28 28 26 23 23 26 27 27 27 27 25 23 21 20 18 17 16 15 14 13 13 12 11 11 10 8 8 7 6 6 7 8 9 9
4 3 7 3 3 5 3 1 6 6 9 1 3 4 16 23 26 25 24 23 24 25 27 26 26 26 24 22 21 20 18 17 16 15 14 13 12 12 11 9 9 8 8 7 8 9 10 11 10
3 3 2 3 5 8 5 5 3 3 5 3 5 3 11 12 14 17 19 22 20 20 28 29 27 27 25 24 23 21 19 18 17 15 13 12 11 12 11 9 9 9 10 10 9 10 11 9 8
3 4 4 7 6 5 8 6 6 5 7 6 7 13 14 14 14 19 18 16 19 22 24 27 27 26 23 21 21 20 19 18 17 15 13 12 11 11 10 9 9 8 11 10 9 9 8 7 2
4 3 8 7 9 7 6 7 6 7 12 12 6 8 15 17 20 20 18 20 26 28 26 27 27 26 24 21 20 19 19 17 15 15 13 12 11 11 10 10 10 11 10 8 8 7 7 6 5
4 6 8 7 10 7 6 4 0 9 10 10 8 12 15 16 21 15 21 25 31 30 31 29 27 25 22 19 21 20 19 18 16 14 12 12 12 11 10 11 12 11 10 9 8 8 8 7 8
5 6 8 5 4 4 2 4 5 9 8 11 10 10 14 17 21 22 33 30 33 34 33 30 29 27 24 21 21 21 20 18 16 13 11 11 13 12 10 10 12 11 11 10 9 8 8 8 8
3 2 4 5 4 5 4 5 9 9 8 11 11 4 11 18 19 29 27 31 30 27 34 34 32 30 27 26 23 22 23 20 18 14 11 9 11 12 11 11 11 10 10 9 9 8 8 8 10
3 3 3 7 4 4 3 6 7 12 8 9 9 9 6 8 10 24 28 32 35 38 37 38 36 32 28 25 25 24 24 22 18 14 12 11 12 10 11 12 12 12 11 9 9 8 8 10 12
5 3 3 4 6 3 8 9 9 10 6 7 8 8 8 7 14 25 25 31 32 34 38 39 34 31 30 28 26 23 21 19 16 14 12 12 12 11 13 14 14 14 13 12 11 10 9 9 11
2 3 4 5 11 4 8 5 9 7 5 7 7 7 7 8 9 17 22 29 30 33 36 34 36 33 30 27 24 20 19 16 14 12 11 11 12 13 14 14 13 14 15 14 13 12 11 9 11
6 7 8 7 10 5 7 10 8 4 1 3 5 6 6 6 8 6 20 31 35 29 24 29 31 31 28 24 19 14 16 13 12 11 9 8 9 11 13 13 13 13 14 13 13 15 13 9 17
9 6 7 8 6 4 5 6 5 3 4 7 9 9 9 10 9 6 8 18 23 29 31 30 31 29 23 20 16 11 13 8 12 11 9 8 8 9 11 11 11 11 12 13 14 17 16 12 17
5 9 13 11 3 2 2 5 3 1 6 6 9 9 10 13 11 9 9 15 17 19 25 27 27 24 19 16 16 18 16 12 11 12 11 9 9 10 11 11 10 11 12 13 13 15 19 16 17
8 9 8 5 2 3 3 1 5 5 4 4 7 8 10 10 11 10 11 20 21 22 22 22 20 18 15 17 20 20 20 17 11 12 12 10 9 10 11 13 12 11 12 12 12 13 16 19 17
3 3 5 4 2 2 6 7 4 3 5 2 2 6 7 7 8 8 13 21 23 21 19 18 18 18 20 20 18 19 19 17 15 15 15 14 12 12 13 13 12 12 11 11 11 11 13 16 17
3 5 2 3 1 5 3 3 4 4 4 5 5 4 7 6 7 7 7 10 17 21 20 18 19 19 17 19 20 20 20 20 22 20 19 17 15 16 15 15 14 12 11 11 11 10 9 10 11
6 7 5 6 4 3 5 4 4 5 5 5 4 3 5 7 5 6 6 11 14 17 20 21 19 15 15 16 19 20 21 24 26 23 21 20 19 16 15 15 14 13 12 12 12 11 10 9 8
5 5 6 6 3 3 3 1 4 4 4 4 4 3 5 2 2 5 7 14 16 18 21 20 17 17 15 20 22 25 23 23 25 24 22 21 20 19 19 18 16 15 13 11 11 11 10 9 8
8 7 3 3 4 5 4 4 5 8 6 6 6 6 5 4 5 6 4 8 9 13 14 15 14 12 12 17 24 26 24 22 22 22 23 23 23 22 22 21 19 18 16 14 13 13 12 12 11
4 4 3 5 4 5 3 5 4 8 6 3 4 3 8 8 8 4 3 11 12 12 14 16 16 15 16 16 17 20 22 21 21 22 22 23 25 25 25 23 21 19 18 17 16 14 14 14 13
4 8 8 5 6 2 3 4 4 7 6 5 8 7 2 5 7 4 7 4 10 11 12 12 13 13 12 12 14 17 18 20 21 22 23 24 26 29 29 27 25 22 21 18 18 17 16 16 15
Wind_Direction
332 343 357 49 47 56 294 282 290 307 353 314 127 148 169 75 170 208 330 161 162 159 160 164 165 166 167 166 164 160 158 154 151 147 146 147 146 145 142 134 128 123 118 117 114 107 101 99 101
335 347 58 77 83 47 297 255 338 318 307 96 58 35 60 144 111 137 131 167 163 159 160 162 165 166 167 168 169 166 163 161 159 157 156 155 152 150 150 141 137 133 126 124 121 117 112 106 105
358 43 83 88 97 158 244 274 311 326 194 134 116 31 164 182 161 167 175 164 162 161 162 162 163 165 167 168 171 169 168 168 165 165 163 161 159 157 160 153 147 143 139 134 126 123 122 119 113
326 23 37 81 199 256 232 275 278 290 175 225 149 96 337 310 174 189 167 165 164 163 165 164 165 165 168 168 170 172 172 172 171 170 169 168 169 166 167 164 157 153 155 151 142 133 131 130 129
44 50 64 82 253 262 261 281 305 323 303 83 10 175 73 343 199 164 165 167 167 165 168 168 169 169 168 169 169 173 173 176 177 176 174 174 174 175 176 174 170 166 166 171 171 169 153 148 142
41 97 52 136 257 257 285 306 359 18 347 126 71 97 184 152 148 156 165 170 172 168 171 171 172 174 173 173 173 174 176 179 179 180 179 179 182 184 185 185 183 179 180 187 199 211 212 208 206
110 84 189 219 230 297 344 324 60 335 336 11 117 125 278 167 156 164 171 174 175 174 173 174 176 178 177 178 179 180 178 179 179 181 183 186 189 192 194 195 194 195 195 200 215 225 237 252 253
106 93 182 248 181 267 328 353 312 40 328 19 132 196 204 185 170 171 175 177 180 180 180 178 180 182 182 182 182 181 182 180 181 183 188 192 194 196 200 204 206 211 212 215 229 237 245 251 263
117 61 196 266 226 283 343 2 313 304 22 358 353 176 259 159 167 164 166 172 180 182 185 186 184 186 186 185 185 185 185 184 185 187 190 194 199 202 203 212 217 225 227 231 242 261 264 261 258
80 123 213 242 334 296 300 321 302 354 333 190 324 353 133 152 163 165 173 178 182 184 188 191 190 187 185 188 189 190 189 188 190 193 198 202 207 213 217 225 221 231 245 244 252 255 270 275 269
353 211 261 313 342 351 300 302 349 323 304 245 273 173 144 163 185 187 190 187 183 181 193 195 197 190 188 192 191 191 192 193 195 198 203 203 204 213 220 230 222 224 241 245 245 254 259 268 268
360 270 24 305 319 317 313 306 315 239 240 261 241 186 167 178 197 197 196 193 181 188 196 196 195 190 192 195 195 192 191 191 192 190 194 199 203 205 212 222 228 246 249 244 241 251 233 234 228
194 332 314 282 281 265 248 257 251 253 259 277 237 177 195 195 202 205 195 191 196 198 199 196 194 191 190 194 195 195 193 193 192 190 196 206 213 213 223 235 234 238 240 235 225 214 200 196 169
311 290 285 290 281 268 263 295 172 280 270 254 215 203 209 206 206 186 189 193 202 200 202 196 194 192 190 196 197 194 192 191 192 196 204 215 219 222 236 234 236 238 233 227 219 208 191 183 168
292 306 317 262 272 274 42 353 232 263 305 281 262 203 211 217 211 199 202 200 199 204 200 195 195 194 191 188 189 192 193 194 196 199 210 222 225 220 226 222 214 217 215 212 209 214 205 194 176
330 1 348 292 331 279 136 274 291 319 338 318 298 280 213 227 215 214 203 205 199 197 201 198 197 194 194 193 198 198 199 200 200 205 219 225 223 222 221 217 210 210 210 211 214 208 199 181 155
335 256 241 317 335 313 12 293 283 308 319 322 333 330 285 259 241 228 207 203 199 203 203 201 199 193 191 193 193 193 190 193 195 204 219 224 221 217 214 217 207 207 213 220 231 217 193 167 147
229 233 248 253 294 348 303 253 276 280 345 353 347 345 333 296 241 227 207 204 199 201 205 201 192 186 183 179 179 180 185 190 197 205 210 217 223 220 209 202 199 207 219 228 233 223 210 182 148
346 303 300 266 278 310 279 266 279 302 36 8 354 342 330 316 300 270 206 197 190 199 198 187 186 179 177 172 170 174 179 188 197 202 208 217 222 217 211 214 213 219 230 234 221 206 196 171 153
267 280 280 281 266 175 271 292 280 287 19 292 306 327 323 311 319 311 178 178 185 181 171 176 180 178 178 178 179 192 198 208 214 213 210 217 232 229 227 229 226 224 227 221 212 202 185 178 170
237 213 248 226 284 296 322 295 261 45 38 1 351 328 330 328 329 327 172 157 161 161 167 174 176 178 178 191 198 213 206 207 197 199 210 228 241 244 238 235 236 230 225 231 225 210 206 184 186
242 209 239 250 213 235 51 283 311 310 43 8 350 346 340 355 359 34 72 67 112 132 155 162 167 170 178 197 208 216 213 213 221 216 227 234 248 250 243 241 237 235 243 240 234 222 210 205 193
228 248 211 215 183 116 249 301 262 126 37 1 340 346 21 20 23 24 60 87 104 124 131 141 154 170 188 207 212 218 221 228 241 231 231 237 245 247 245 241 248 240 240 243 240 233 225 216 212
197 118 47 43 95 302 223 177 271 289 168 212 336 346 18 51 68 66 81 110 122 131 139 153 170 187 203 209 220 228 227 223 229 225 227 231 237 248 245 244 239 232 228 246 252 243 232 227 221
103 96 340 334 327 228 303 143 224 184 151 167 148 24 1 28 74 98 98 115 139 148 157 173 190 197 206 218 222 228 237 236 233 232 229 231 235 239 241 243 236 233 223 227 236 244 232 226 223
182 161 157 212 215 259 300 232 216 170 102 105 90 76 23 18 36 81 124 145 154 163 171 178 193 207 223 233 236 239 242 241 238 236 236 240 248 249 242 239 234 235 235 235 226 223 223 218 216
177 191 177 110 34 40 236 48 10 117 135 111 114 78 78 45 124 139 162 151 154 172 183 182 187 211 215 235 241 243 244 236 233 236 240 249 253 242 232 230 230 227 229 224 219 213 208 195 187
180 156 84 347 162 223 250 223 204 180 186 170 141 174 195 219 209 196 174 158 168 192 195 200 207 222 234 238 238 241 242 239 236 237 241 248 250 236 230 230 222 217 218 218 217 210 199 191 175
123 179 78 129 155 182 189 252 234 144 166 131 1 103 210 216 231 254 203 181 172 175 193 208 212 219 229 233 240 245 245 245 243 246 250 248 244 234 227 224 218 217 216 211 209 205 193 181 172
162 193 159 161 207 244 154 281 94 139 120 58 322 318 352 218 269 278 283 263 191 186 183 192 207 222 238 245 244 250 252 250 251 253 253 249 242 232 227 228 220 215 212 206 202 189 179 174 166